Location: Brestaka
(42.5833°N, 23.9167°E)
Time: 10:53:20
(UTC+00:00)

Daily predictions for brighter satellites

Satellite Brightness Start Highest point End
(mag) Time Altitude Azimuth Time Altitude Azimuth Time Altitude Azimuth
NOSS 3-4 (A) 3.6 17:34:38 10° SW 17:39:51 69° NW 17:45:33 10° NNE
NOSS 3-4 (C) 3.6 17:35:09 10° SW 17:40:23 70° NW 17:46:07 10° NNE
SL-19 R/B 4.4 17:36:37 10° SSE 17:41:56 81° WSW 17:47:34 10° NNW
SPOT 5 2.8 17:43:36 10° SSE 17:48:01 56° ENE 17:52:19 10° N
CZ-4 R/B 2.0 17:45:06 10° SE 17:48:27 32° ENE 17:51:46 10° N
Cosmos 1656 Rocket 4.5 17:46:00 10° N 17:50:57 34° ENE 17:55:55 10° ESE
Gblst 52 Del rocket 4.4 17:47:19 10° SW 17:53:05 86° SE 17:59:40 10° ENE
Cosmos 1821 Rocket 4.2 17:50:31 10° SSE 17:56:35 55° E 18:02:46 10° NNE
Cosmos 1025 Rocket 4.4 17:53:18 10° NNE 17:56:38 22° ENE 17:59:43 11° ESE
IRAS Rocket 4.3 17:52:02 10° SSE 17:57:25 60° ENE 18:02:47 10° N
Cosmos 1733 Rocket 3.1 17:53:30 10° S 17:57:47 59° E 18:02:07 10° NNE
Terra 2.8 17:53:51 10° SE 17:57:49 28° ENE 18:01:47 10° N
Meteor 2-15 4.4 17:53:04 10° S 17:59:05 74° E 18:05:11 10° NNE
CZ-4B R/B 3.9 17:56:22 10° SSE 18:00:01 54° ENE 18:03:48 10° N
Cosmos 2237 Rocket 2.6 17:54:38 10° SSW 18:00:17 70° WNW 18:06:01 10° NNE
Cosmos 2242 Rocket 3.7 17:55:56 10° N 18:00:18 54° E 18:04:36 10° SSE
Helios 1A Rocket 2.7 17:58:42 10° NNE 18:01:44 38° E 18:04:43 10° S
Cosmos 1980 4.3 17:56:42 10° SW 18:02:17 62° WNW 18:07:53 10° NNE
Cosmos 2218 Rocket 4.0 17:56:18 10° S 18:02:26 84° E 18:08:38 10° N
SJ-6B 3.8 17:59:10 10° S 18:02:39 44° W 18:06:08 10° NNW
Resurs 01 Rocket 3.6 17:59:36 10° SSW 18:03:27 30° W 18:07:19 10° NW
Meteor 1-21 Rocket 4.4 17:59:25 10° NNW 18:05:08 83° W 18:10:56 10° S
Meteor 2-15 Rocket 4.5 18:00:36 10° S 18:06:32 60° E 18:12:32 10° NNE
CSL-04 Rocket 3.7 18:01:05 10° SSE 18:06:37 80° ENE 18:12:11 10° NNW
Blok-2BL 4.1 18:09:01 10° SW 18:13:29 89° SE 18:19:08 10° NE
SL-24 R/B 4.4 18:12:19 10° NNE 18:17:44 80° ESE 18:22:29 10° S
USA 59 Rocket -0.2 18:14:51 10° NW 18:18:24 83° NE 18:22:13 15° SE
Cosmos 1346 Rocket 3.3 18:15:39 10° N 18:18:56 33° ENE 18:20:53 19° SE
OAO 3 Rocket 4.2 18:15:13 10° WSW 18:19:16 30° S 18:22:04 17° SE
Gbstr 26 Del rocket 4.3 18:16:08 10° S 18:20:41 26° SE 18:24:22 11° E
Cosmos 1943 Rocket 3.7 18:15:49 10° NW 18:20:53 34° WSW 18:25:53 10° SSW
Cosmos 1400 Rocket 2.6 18:18:12 10° SSW 18:21:47 80° W 18:25:25 10° N
SL-4 R/B 2.9 18:19:30 10° S 18:22:33 23° SE 18:23:54 19° ESE
Feng Yun 1-1 Rocket 4.2 18:17:34 10° SSE 18:23:02 70° ENE 18:28:25 10° N
ASTEX 1 4.4 18:20:30 17° ESE 18:23:19 29° ENE 18:27:31 10° NNE
TIMED 4.4 18:20:32 10° NNW 18:24:48 86° ENE 18:28:25 14° SSE
Meteor 1-31 Rocket 2.7 18:22:06 10° S 18:25:35 73° WSW 18:29:07 10° NNW
Cosmos 1812 1.4 18:28:43 26° SW 18:29:23 48° W 18:31:01 10° N
ADEOS 3.7 18:25:49 15° SE 18:29:58 55° ENE 18:35:03 10° N
Cosmos 2369 Rocket 3.1 18:25:02 10° N 18:30:04 33° NE 18:33:13 19° ESE
Cosmos 1602 4.5 18:28:46 10° NNE 18:29:48 16° NE 18:29:48 16° NE
Cosmos 1869 4.2 18:32:16 23° E 18:32:27 23° E 18:35:18 10° NE
MOS 1 4.2 18:27:43 11° SSE 18:33:09 75° ENE 18:38:49 10° N
Cosmos 2285 Rocket 4.2 18:27:33 10° S 18:33:39 51° ESE 18:39:45 10° NNE
CBERS 1 LM4 rocket 4.3 18:29:52 15° SSE 18:33:45 70° ENE 18:38:31 10° N
Aureole 3 4.4 18:28:44 10° N 18:34:03 80° W 18:40:16 10° S
USA 234 3.2 18:28:06 10° NE 18:34:38 67° SE 18:41:07 10° SW
SL-08 R/B 3.5 18:32:31 10° NNE 18:37:19 52° E 18:42:04 10° S
USA 186 3.3 18:43:56 14° NE 18:43:56 14° NE 18:44:38 10° NNE
Cosmos 2221 Rocket 3.9 18:39:07 10° N 18:43:22 46° ENE 18:45:17 28° SE
Cosmos 1943 4.0 18:41:49 23° SE 18:43:42 28° ESE 18:48:25 10° NE
CZ-4B DEB 4.4 18:40:29 10° S 18:45:55 73° WSW 18:51:27 10° NNW
CZ-4B R/B 3.2 18:41:50 16° SSE 18:46:25 82° ENE 18:52:07 10° NNW
Cosmos 2278 Rocket 4.1 18:42:52 10° NW 18:47:27 26° WSW 18:52:02 10° SSW
SKYMED 3 4.1 18:44:28 10° NNE 18:48:22 83° ESE 18:52:15 10° S
CZ-4B R/B 4.4 18:52:52 17° ENE 18:52:52 17° ENE 18:54:52 10° NNE
Cosmos 405 Rocket 4.2 18:51:07 10° NNE 18:52:20 16° NE 18:52:20 16° NE
SL-8 R/B 4.1 18:48:38 10° W 18:53:18 60° NNW 18:58:00 10° ENE
HBTSS-SV1 4.5 18:49:09 10° WSW 18:53:32 63° S 18:55:12 35° ESE
OAO 2 Rocket 4.1 18:50:01 10° WSW 18:54:41 35° S 18:56:05 30° SSE
SL-24 R/B 4.4 18:50:20 10° N 18:54:58 69° WNW 18:59:11 10° SSW
NOSS 2-1 (D) 4.1 18:54:16 10° NW 18:57:47 47° WSW 19:00:11 24° S
ERS-1 Rocket 3.2 18:54:03 15° S 18:58:12 67° WSW 19:03:12 10° NNW
Cosmos 1975 Rocket 4.4 18:55:18 10° NNE 18:58:49 23° ENE 18:58:58 23° ENE
Cosmos 2292 Rocket 3.2 19:01:00 10° N 19:05:04 72° W 19:06:14 38° SSW
Cosmos 1674 Rocket 4.1 19:01:04 10° NNW 19:05:20 56° W 19:08:19 19° SSW
BREEZE-M DEB (TANK) 3.6 19:03:37 10° NW 19:05:49 32° NNE 19:06:42 27° ENE
NOSS 2-1 (E) 3.9 19:02:26 10° NW 19:05:58 52° WSW 19:07:43 31° S
Cosmos 2298 Rocket 4.0 19:01:44 10° SSW 19:07:02 88° WNW 19:12:24 10° NNE
Okean-O 2.5 19:07:12 43° SE 19:08:29 67° ENE 19:12:51 10° N
Cosmos 44 4.3 19:05:49 10° SW 19:10:43 52° NW 19:15:54 10° NNE
NOSS 2-1 (C) 4.4 19:08:30 10° NW 19:11:59 40° WSW 19:13:45 27° S
Cosmos 1908 Rocket 3.6 19:08:44 17° SSW 19:12:00 74° W 19:16:20 10° N
IRS-1A Rocket 4.3 19:08:51 25° S 19:12:18 81° WSW 19:18:03 10° NNW
SL-08 R/B 4.5 19:07:08 10° S 19:13:16 83° W 19:19:24 10° N
Cosmos 1934 Rocket 3.9 19:10:21 16° S 19:15:31 81° E 19:21:44 10° N
CZ-4B R/B 4.0 19:15:34 35° E 19:16:12 36° ENE 19:20:32 10° N
SL-16 R/B 2.7 19:10:45 10° SW 19:16:19 61° WNW 19:21:58 10° NNE
Okean O Rocket 1.4 19:15:51 48° SSE 19:17:03 87° ENE 19:21:23 10° NNW
Ariane Rocket 3.8 19:17:09 32° E 19:17:52 34° ENE 19:22:22 10° N
Cosmos 1782 Rocket 3.4 19:21:41 62° SE 19:22:12 70° E 19:26:29 10° NNE
Geosat 4.0 19:17:30 10° NNE 19:22:31 78° WNW 19:27:30 10° SSW
CZ-4 R/B 3.8 19:20:04 10° SW 19:22:32 17° W 19:24:59 10° NW
Spot 2 Rocket 3.5 19:23:16 38° S 19:25:12 79° WSW 19:30:14 10° NNW
Milstar 3 4.5 19:18:14 10° SSW 19:41:39 - E 19:24:35 27° SSE
MOS 1-B 4.3 19:23:34 34° S 19:26:12 84° WSW 19:32:02 10° NNW
Cosmos 1269 Rocket 4.4 19:24:08 10° N 19:29:13 47° ENE 19:29:59 44° E
USA 245 3.9 19:28:49 55° ESE 19:29:35 64° ENE 19:34:58 10° N
ATLAS 5 CENTAUR R/B 3.8 19:28:39 10° N 19:30:54 14° NE 19:31:56 13° NE
NOSS 3-1 (C) 4.0 19:24:44 10° NW 19:31:59 78° NE 19:35:43 38° SE
Cosmos 1140 Rocket 3.6 19:27:13 10° NNW 19:32:15 54° ENE 19:32:51 50° E
Terra 3.3 19:32:10 16° SSW 19:35:13 31° W 19:39:24 10° NNW
Cosmos 967 Rocket 4.4 19:29:44 10° NNW 19:36:13 87° ENE 19:38:09 48° SE
BREEZE-M DEB (TANK) 3.1 19:38:38 10° WNW 19:41:58 81° NNE 19:43:55 45° ESE
Cosmos 2123 Rocket 4.4 19:37:40 10° NNW 19:43:52 61° W 19:47:09 29° SSW
Cosmos 407 Rocket 4.3 19:44:12 10° N 19:48:51 36° ENE 19:48:51 36° ENE
Cosmos 1300 Rocket 4.4 19:48:13 34° SW 19:49:35 46° WNW 19:53:44 10° N
Cosmos 2058 3.9 19:49:35 10° N 19:52:11 37° NNE 19:52:11 37° NNE
Cosmos 371 Rocket 4.4 19:50:56 10° N 19:54:49 31° NE 19:54:49 31° NE
BREEZE-M DEB (TANK) 4.2 19:52:56 10° NW 19:55:56 42° NNE 19:58:01 30° ENE
COSMOS 2455 3.3 19:51:33 10° NNW 19:57:22 47° NE 19:58:10 44° ENE
BREEZE-M DEB (TANK) 4.4 19:54:54 10° WSW 19:59:34 73° NNW 20:19:27 10° ENE
SL-4 R/B 3.7 19:55:55 10° WSW 19:57:35 24° WSW 19:57:35 24° WSW
Cosmos 1605 Rocket 4.0 20:02:58 45° SSW 20:04:57 74° W 20:11:06 10° N
SJ 16-02 3.1 20:01:42 10° N 20:04:02 22° NE 20:04:02 22° NE
Gbstr 26 Del rocket 3.4 20:01:48 10° WSW 20:06:31 65° WNW 20:06:31 65° WNW
Cosmos 1315 Rocket 4.1 20:08:55 36° NW 20:08:55 36° NW 20:11:54 10° N
SPOT 3 Rocket 3.7 20:08:17 63° SW 20:08:39 65° WSW 20:13:49 10° NNW
Cosmos 2297 4.3 20:04:20 10° NW 20:09:49 47° WSW 20:10:44 43° SW
Cosmos 2369 Rocket 3.1 20:08:59 10° NW 20:14:04 37° WSW 20:14:59 35° SW
SeaSat 1 4.4 20:17:06 18° NE 20:17:20 18° NE 20:20:37 10° N
USA 234 4.3 20:11:17 10° NE 20:17:26 45° NNW 20:23:34 10° W
Cosmos 2173 Rocket 4.4 20:18:48 45° ENE 20:18:48 45° ENE 20:23:49 10° NNE
Lacrosse 5 rocket 3.8 20:18:45 10° NNW 20:19:32 14° N 20:19:32 14° N
Cosmos 1603 3.8 20:26:12 67° NE 20:26:12 67° NE 20:31:07 10° NNE
Cosmos 1943 4.2 20:23:24 17° SW 20:27:27 44° WNW 20:32:53 10° NNE
Cosmos 921 Rocket 4.2 20:27:05 10° NNW 20:30:06 40° NW 20:30:06 40° NW
NOSS 3-1 (A) 4.0 20:24:23 10° NW 20:31:45 84° NE 20:33:20 64° SE
Meteor 2-3 Rocket 4.4 20:27:18 10° N 20:31:47 44° NE 20:31:47 44° NE
Cosmos 2100 Rocket 4.0 20:42:04 70° NE 20:42:04 70° NE 20:47:38 10° N
Ariane Rocket 4.5 20:57:13 29° W 20:57:13 29° W 21:01:06 10° NW
Cosmos 1656 4.3 20:58:49 10° NNW 21:02:57 50° N 21:02:57 50° N
BREEZE-M DEB (TANK) 4.2 20:55:09 10° WSW 21:11:39 81° NNW 21:16:54 10° ENE
ATLAS 5 CENTAUR R/B 3.5 21:09:03 10° NW 21:11:03 28° NNW 21:11:03 28° NNW
Cosmos 1833 Rocket 4.3 21:19:39 26° NE 21:19:39 26° NE 21:22:09 10° NE
Cosmos 1725 Rocket 4.3 21:24:14 65° N 21:24:14 65° N 21:29:34 10° N
Cosmos 2233 Rocket 4.4 21:34:00 57° NNE 21:34:00 57° NNE 21:38:51 10° N
ATLAS 2AS CENTAUR R/B 3.1 21:38:07 53° NE 21:38:07 53° NE 21:43:12 10° NE
COSMOS 2455 4.4 21:37:53 10° NW 21:41:17 26° WNW 21:41:17 26° WNW
SJ 16-02 4.0 21:39:37 10° NW 21:40:32 15° NW 21:40:32 15° NW
CZ-2C R/B 4.3 21:47:41 27° NE 21:47:41 27° NE 21:51:14 10° N
SeaSat 1 4.1 21:56:42 29° NW 21:56:42 29° NW 21:59:04 10° NNW
ACS3 Solar Sail 4.0 21:59:16 10° NE 22:01:13 14° ENE 22:01:13 14° ENE
Cosmos 1697 Rocket 3.8 22:01:48 10° NNW 22:05:25 41° NNW 22:05:25 41° NNW
CZ-4C R/B 4.5 22:20:44 12° NE 22:20:44 12° NE 22:21:11 10° NE
Cosmos 1980 Rocket 3.3 22:22:35 10° NNW 22:26:39 41° NNE 22:26:39 41° NNE
ATLAS 3B R/B 2.9 22:48:31 10° NW 22:55:40 76° NNW 22:55:40 76° NNW
Cosmos 2333 Rocket 4.4 22:55:10 10° N 22:59:17 20° NE 23:02:07 14° E
Cosmos 1833 Rocket 4.3 23:01:17 26° NW 23:01:17 26° NW 23:05:34 10° N
Cosmos 2082 Rocket 3.2 23:02:51 42° NE 23:02:51 42° NE 23:06:38 10° NNE
CZ-2C R/B 4.5 23:05:49 10° N 23:09:16 34° NNW 23:09:16 34° NNW
USA 229 4.5 23:14:57 10° NW 23:20:40 48° WNW 23:20:40 48° WNW
CZ-2C R/B 4.3 23:29:07 26° NW 23:29:07 26° NW 23:31:44 10° NNW
SL-16 R/B 3.5 23:21:35 10° N 23:26:44 34° NE 23:27:50 31° E
ATLAS 2AS CENTAUR R/B 4.2 23:25:29 23° WNW 23:27:55 28° NW 23:33:41 10° NNE
Cosmos 2279 Rocket 4.3 23:43:05 61° E 23:43:05 61° E 23:48:57 10° NNE
ACS3 Solar Sail 1.9 23:39:23 10° N 23:44:46 72° N 23:44:46 72° N
IDEFIX/ARIANE 42P 3.5 23:42:17 10° NNE 23:46:20 43° ENE 23:46:20 43° ENE
ADEOS Rocket 4.3 23:42:41 10° NNE 23:49:54 42° E 23:52:01 36° SE
